NORTHERN NASSAU  -  Coastal Flood Statement Coastal Flood Statement     Rip Current Statement Rip Current Statement        NORTHERN QUEENS  -  Coastal Flood Statement Coastal Flood Statement     Rip Current Statement Rip Current Statement        SOUTHERN NASSAU  -  Coastal Flood Statement Coastal Flood Statement     Rip Current Statement Rip Current Statement        SOUTHERN QUEENS  -  Coastal Flood Statement Coastal Flood Statement     Rip Current Statement Rip Current Statement        NORTHEAST SUFFOLK  -  Rip Current Statement Rip Current Statement        NORTHWEST SUFFOLK  -  Rip Current Statement Rip Current Statement        SOUTHEAST SUFFOLK  -  Rip Current Statement Rip Current Statement        SOUTHWEST SUFFOLK  -  Rip Current Statement Rip Current Statement      

Active alerts

Northern Queens
  Details for Northern Queens Coastal Flood Statement  +1 additional alert
Southern Queens
  Details for Southern Queens Coastal Flood Statement  +1 additional alert
Northern Nassau
  Details for Northern Nassau Coastal Flood Statement  +1 additional alert
Southern Nassau
  Details for Southern Nassau Coastal Flood Statement  +1 additional alert
Northwest Suffolk
  Details for Northwest Suffolk Rip Current Statement
Southwest Suffolk
  Details for Southwest Suffolk Rip Current Statement
Northeast Suffolk
  Details for Northeast Suffolk Rip Current Statement
Southeast Suffolk
  Details for Southeast Suffolk Rip Current Statement


WXM80 ListenWXM80 Stop

You find our weather info also at:

UK Metoffice

WeatherCloud

Weather Underground

Northeastern Weather Network

AWEKAS

Citizen Weather Observer Program (CWOP)

HAMweather, WeatherForYou, PWS Weather


Weather Underground History page Text

Daily Summary for January 6, 2018 Units:  Metric    English   Both
« Previous Day
Next Day »
Daily Weekly Monthly Yearly Custom
  High: Low: Average:
Temperature: -10.3 °C -13.1 °C -12 °C
Dew Point: -17.8 °C -19.3 °C -18.4 °C
Humidity: 65 % 51 % 59 %
Wind Speed: 28.3 km/h 5.3 km/h 14.6 km/h
Wind Gust: 55.5 km/h - -
Wind:- - WNW
Pressure: 1029.7 hPa 1016.5 hPa -
Precipitation: 0 mm    
Historical Graphs
 
 
Tabular Data for January 6, 2018
Time Temperature Dew Point Pressure Wind Wind Speed Wind Gust Humidity Rainfall Rate (Hourly)
00:00 -12.1 °C -17.9 °C 1016.8 hPa West 11.3 km/h 19.3 km/h 62 % 0 mm
00:05 -12.1 °C -18.1 °C 1016.8 hPa West 21.7 km/h 40.2 km/h 61 % 0 mm
00:09 -12.1 °C -17.9 °C 1016.8 hPa WSW 13.7 km/h 20.9 km/h 62 % 0 mm
00:14 -12.2 °C -17.9 °C 1016.8 hPa West 10.6 km/h 32.2 km/h 62 % 0 mm
00:18 -12.2 °C -17.8 °C 1016.5 hPa West 13.2 km/h 20.4 km/h 63 % 0 mm
00:23 -12.2 °C -17.9 °C 1016.8 hPa West 17.1 km/h 27.8 km/h 62 % 0 mm
00:28 -12.2 °C -18.2 °C 1016.8 hPa West 14.3 km/h 31.5 km/h 61 % 0 mm
00:33 -12.2 °C -18 °C 1016.8 hPa WSW 16.6 km/h 27.8 km/h 62 % 0 mm
00:39 -12.3 °C -18.4 °C 1016.8 hPa NW 13 km/h 31.5 km/h 60 % 0 mm
00:44 -12.3 °C -18.1 °C 1016.8 hPa WSW 21.4 km/h 42.6 km/h 62 % 0 mm
00:49 -12.3 °C -18.1 °C 1017.2 hPa WSW 10.5 km/h 18.5 km/h 62 % 0 mm
00:54 -12.3 °C -18.1 °C 1017.2 hPa WSW 14.2 km/h 22.2 km/h 62 % 0 mm
00:59 -12.3 °C -18.1 °C 1017.2 hPa SSW 10.3 km/h 24.1 km/h 62 % 0 mm
01:05 -12.3 °C -18.1 °C 1017.2 hPa NW 14.3 km/h 31.5 km/h 62 % 0 mm
01:10 -12.3 °C -18.1 °C 1017.5 hPa WSW 17.1 km/h 37 km/h 62 % 0 mm
01:15 -12.3 °C -17.9 °C 1017.5 hPa NW 18.8 km/h 32.2 km/h 63 % 0 mm
01:20 -12.3 °C -18.3 °C 1017.5 hPa WSW 15.8 km/h 37 km/h 61 % 0 mm
01:25 -12.3 °C -18.3 °C 1017.2 hPa West 10.9 km/h 37 km/h 61 % 0 mm
01:30 -12.3 °C -18.1 °C 1017.2 hPa WNW 17.9 km/h 31.5 km/h 62 % 0 mm
01:35 -12.3 °C -18.1 °C 1017.5 hPa NW 21.9 km/h 33.3 km/h 62 % 0 mm
01:38 -12.3 °C -18.5 °C 1017.5 hPa West 15 km/h 37 km/h 60 % 0 mm
01:41 -12.4 °C -18.6 °C 1017.5 hPa West 16.7 km/h 33.3 km/h 60 % 0 mm
01:46 -12.3 °C -18.5 °C 1017.5 hPa WNW 20.9 km/h 46.3 km/h 60 % 0 mm
01:51 -12.4 °C -18.6 °C 1017.8 hPa WNW 13.8 km/h 20.4 km/h 60 % 0 mm
01:56 -12.4 °C -18.6 °C 1017.8 hPa West 21.1 km/h 38.9 km/h 60 % 0 mm
01:59 -12.4 °C -18.4 °C 1017.8 hPa WNW 12.2 km/h 18.5 km/h 61 % 0 mm
02:01 -12.4 °C -18.4 °C 1017.8 hPa WNW 15.6 km/h 30.6 km/h 61 % 0 mm
02:06 -12.4 °C -18.6 °C 1017.8 hPa WNW 11.3 km/h 31.5 km/h 60 % 0 mm
02:11 -12.4 °C -18.4 °C 1017.8 hPa NW 17.7 km/h 42.6 km/h 61 % 0 mm
02:16 -12.5 °C -18.5 °C 1018.2 hPa NW 13.2 km/h 24.1 km/h 61 % 0 mm
02:21 -12.5 °C -18.5 °C 1018.2 hPa West 14.2 km/h 31.5 km/h 61 % 0 mm
02:27 -12.5 °C -18.7 °C 1018.5 hPa West 12.9 km/h 42.6 km/h 60 % 0 mm
02:30 -12.5 °C -18.7 °C 1018.5 hPa West 12.1 km/h 19.3 km/h 60 % 0 mm
02:35 -12.5 °C -18.7 °C 1018.5 hPa WSW 14 km/h 33.3 km/h 60 % 0 mm
02:41 -12.5 °C -18.7 °C 1018.5 hPa NW 14.3 km/h 25.9 km/h 60 % 0 mm
02:46 -12.6 °C -18.7 °C 1018.5 hPa WSW 12.4 km/h 20.4 km/h 60 % 0 mm
02:47 -12.6 °C -18.6 °C 1018.5 hPa SW 11.3 km/h 22.5 km/h 61 % 0 mm
02:52 -12.6 °C -18.6 °C 1018.5 hPa WSW 14.2 km/h 24.1 km/h 61 % 0 mm
02:57 -12.6 °C -18.6 °C 1018.5 hPa West 9.7 km/h 27.4 km/h 61 % 0 mm
03:02 -12.6 °C -18.7 °C 1018.5 hPa WNW 16.7 km/h 25.9 km/h 60 % 0 mm
03:05 -12.6 °C -18.6 °C 1018.5 hPa WSW 16.4 km/h 24.1 km/h 61 % 0 mm
03:11 -12.6 °C -19 °C 1018.5 hPa WSW 12.2 km/h 31.5 km/h 59 % 0 mm
03:16 -12.7 °C -18.8 °C 1018.8 hPa WNW 15.3 km/h 29.6 km/h 60 % 0 mm
03:21 -12.7 °C -18.8 °C 1018.8 hPa West 12.2 km/h 20.4 km/h 60 % 0 mm
03:26 -12.7 °C -18.9 °C 1018.5 hPa WNW 12.4 km/h 27.8 km/h 60 % 0 mm
03:31 -12.7 °C -18.7 °C 1018.5 hPa WNW 18.5 km/h 32.2 km/h 61 % 0 mm
03:36 -12.7 °C -19.1 °C 1018.8 hPa NW 19.5 km/h 35.2 km/h 59 % 0 mm
03:42 -12.7 °C -18.9 °C 1018.8 hPa SW 14.6 km/h 25.9 km/h 60 % 0 mm
03:47 -12.7 °C -18.7 °C 1018.5 hPa West 15.4 km/h 29.6 km/h 61 % 0 mm
03:52 -12.8 °C -18.7 °C 1018.8 hPa West 15.1 km/h 24.1 km/h 61 % 0 mm
03:57 -12.7 °C -18.7 °C 1018.8 hPa NNW 13 km/h 29.6 km/h 61 % 0 mm
04:02 -12.7 °C -18.7 °C 1018.8 hPa WNW 13.2 km/h 24.1 km/h 61 % 0 mm
04:07 -12.7 °C -18.7 °C 1018.8 hPa WNW 13.2 km/h 27.8 km/h 61 % 0 mm
04:12 -12.7 °C -18.6 °C 1018.8 hPa WSW 11.4 km/h 20.4 km/h 61 % 0 mm
04:17 -12.7 °C -18.9 °C 1018.8 hPa WSW 10.8 km/h 31.5 km/h 60 % 0 mm
04:22 -12.7 °C -18.6 °C 1018.8 hPa West 18.8 km/h 27.8 km/h 61 % 0 mm
04:27 -12.7 °C -18.6 °C 1018.8 hPa NW 23.8 km/h 25.7 km/h 61 % 0 mm
04:36 -12.7 °C -18.6 °C 1018.8 hPa West 16.4 km/h 31.5 km/h 61 % 0 mm
04:41 -12.7 °C -18.6 °C 1019.2 hPa WNW 11.1 km/h 22.2 km/h 61 % 0 mm
04:46 -12.7 °C -18.6 °C 1019.2 hPa NW 16.9 km/h 25.9 km/h 61 % 0 mm
04:51 -12.6 °C -18.6 °C 1019.2 hPa WNW 14.3 km/h 27.4 km/h 61 % 0 mm
04:56 -12.6 °C -18.6 °C 1018.8 hPa WNW 16.4 km/h 43.5 km/h 61 % 0 mm
04:58 -12.6 °C -18.6 °C 1018.8 hPa West 16.3 km/h 32.2 km/h 61 % 0 mm
05:07 -12.4 °C -18.1 °C 1019.2 hPa West 13.7 km/h 14.8 km/h 63 % 0 mm
05:12 -12.4 °C -18.2 °C 1019.2 hPa SSW 15.4 km/h 33.3 km/h 62 % 0 mm
05:14 -12.4 °C -18.2 °C 1019.2 hPa West 17.9 km/h 31.5 km/h 62 % 0 mm
05:19 -12.4 °C -18.6 °C 1019.2 hPa WSW 16.6 km/h 25.9 km/h 60 % 0 mm
05:24 -12.5 °C -18.5 °C 1019.2 hPa West 15.6 km/h 29.6 km/h 61 % 0 mm
05:30 -12.4 °C -18.4 °C 1019.2 hPa NNW 12.9 km/h 24.1 km/h 61 % 0 mm
05:34 -12.5 °C -18.5 °C 1019.2 hPa West 8 km/h 31.5 km/h 61 % 0 mm
05:39 -12.5 °C -18.5 °C 1019.5 hPa WNW 20.9 km/h 35.4 km/h 61 % 0 mm
05:44 -12.4 °C -18.4 °C 1019.2 hPa NW 15 km/h 37 km/h 61 % 0 mm
05:49 -12.4 °C -18 °C 1019.5 hPa WNW 8.4 km/h 27.8 km/h 63 % 0 mm
05:54 -12.4 °C -18.4 °C 1019.5 hPa West 11.4 km/h 25.9 km/h 61 % 0 mm
05:59 -12.5 °C -18.3 °C 1019.9 hPa SSW 21.2 km/h 44.4 km/h 62 % 0 mm
06:00 -12.4 °C -18.4 °C 1019.5 hPa West 19.8 km/h 44.4 km/h 61 % 0 mm
06:05 -12.5 °C -18.5 °C 1019.9 hPa WNW 10.1 km/h 40.7 km/h 61 % 0 mm
06:08 -12.5 °C -18.5 °C 1019.9 hPa West 22.7 km/h 31.5 km/h 61 % 0 mm
06:13 -12.5 °C -18.1 °C 1019.9 hPa WSW 21.6 km/h 38.9 km/h 63 % 0 mm
06:23 -12.5 °C -18.3 °C 1019.9 hPa SW 28.3 km/h 55.5 km/h 62 % 0 mm
06:26 -12.5 °C -18.5 °C 1019.9 hPa WNW 19.2 km/h 48.1 km/h 61 % 0 mm
06:31 -12.5 °C -18.1 °C 1020.2 hPa WSW 11.7 km/h 24.1 km/h 63 % 0 mm
06:36 -12.5 °C -18.3 °C 1019.5 hPa WSW 18.8 km/h 38.9 km/h 62 % 0 mm
06:41 -12.4 °C -18.1 °C 1019.9 hPa WSW 24.1 km/h 35.2 km/h 63 % 0 mm
06:47 -12.5 °C -18.5 °C 1019.9 hPa WSW 14.2 km/h 20.9 km/h 61 % 0 mm
06:52 -12.5 °C -18.5 °C 1019.9 hPa West 16.9 km/h 29.6 km/h 61 % 0 mm
06:56 -12.6 °C -18.5 °C 1019.9 hPa WSW 14.5 km/h 37 km/h 61 % 0 mm
06:57 -12.6 °C -18.6 °C 1019.9 hPa WNW 17.2 km/h 32.2 km/h 61 % 0 mm
07:03 -12.6 °C -18.6 °C 1020.2 hPa West 13.7 km/h 25.7 km/h 61 % 0 mm
07:08 -12.6 °C -18.2 °C 1020.2 hPa SW 16.1 km/h 31.5 km/h 63 % 0 mm
07:13 -12.6 °C -18.3 °C 1020.5 hPa WNW 17.5 km/h 33.8 km/h 62 % 0 mm
07:16 -12.6 °C -18.3 °C 1020.2 hPa WNW 21.1 km/h 42.6 km/h 62 % 0 mm
07:23 -12.5 °C -17.9 °C 1020.5 hPa WSW 15.6 km/h 37 km/h 64 % 0 mm
07:29 -12.5 °C -17.9 °C 1020.5 hPa WNW 16.1 km/h 25.9 km/h 64 % 0 mm
07:34 -12.5 °C -18.1 °C 1020.9 hPa NW 7.1 km/h 18.5 km/h 63 % 0 mm
07:39 -12.5 °C -18.1 °C 1020.9 hPa NW 14.3 km/h 37 km/h 63 % 0 mm
07:44 -12.5 °C -18.1 °C 1020.9 hPa WSW 18 km/h 40.2 km/h 63 % 0 mm
07:49 -12.5 °C -18.1 °C 1020.9 hPa WSW 19.3 km/h 29.6 km/h 63 % 0 mm
07:50 -12.5 °C -18.1 °C 1020.9 hPa West 19 km/h 29.6 km/h 63 % 0 mm
07:55 -12.4 °C -18.2 °C 1020.9 hPa NW 12.7 km/h 17.7 km/h 62 % 0 mm
08:01 -12.4 °C -18.1 °C 1020.9 hPa West 14.5 km/h 22.2 km/h 63 % 0 mm
08:06 -12.4 °C -18.1 °C 1021.2 hPa West 14.5 km/h 32.2 km/h 63 % 0 mm
08:07 -12.4 °C -18.1 °C 1021.2 hPa WSW 15.6 km/h 31.5 km/h 63 % 0 mm
08:12 -12.4 °C -18 °C 1021.2 hPa West 14.8 km/h 27.8 km/h 63 % 0 mm
08:17 -12.4 °C -18.2 °C 1021.2 hPa SW 15.6 km/h 33.3 km/h 62 % 0 mm
08:22 -12.4 °C -18 °C 1021.6 hPa WNW 15.6 km/h 27.8 km/h 63 % 0 mm
08:27 -12.3 °C -17.9 °C 1021.6 hPa WSW 9.5 km/h 25.9 km/h 63 % 0 mm
08:29 -12.3 °C -17.8 °C 1021.6 hPa WNW 15.9 km/h 29.6 km/h 64 % 0 mm
08:34 -12.3 °C -17.9 °C 1021.6 hPa SW 17.4 km/h 35.2 km/h 63 % 0 mm
08:36 -12.3 °C -17.9 °C 1021.2 hPa NW 15.6 km/h 33.3 km/h 63 % 0 mm
08:42 -12.3 °C -18.1 °C 1021.2 hPa NW 16.1 km/h 33.3 km/h 62 % 0 mm
08:47 -12.2 °C -18 °C 1021.6 hPa West 17.9 km/h 31.5 km/h 62 % 0 mm
08:48 -12.2 °C -18 °C 1021.6 hPa NW 16.4 km/h 25.9 km/h 62 % 0 mm
08:53 -12.2 °C -17.8 °C 1021.6 hPa SW 13.7 km/h 24.1 km/h 63 % 0 mm
08:58 -12.1 °C -17.9 °C 1021.6 hPa West 12.9 km/h 22.5 km/h 62 % 0 mm
09:01 -12.1 °C -17.9 °C 1021.6 hPa West 12.7 km/h 24.1 km/h 62 % 0 mm
09:07 -12.1 °C -17.9 °C 1021.6 hPa West 13.8 km/h 25.9 km/h 62 % 0 mm
09:12 -12.1 °C -18.4 °C 1021.9 hPa SW 20.1 km/h 33.3 km/h 59 % 0 mm
09:15 -12.1 °C -18.7 °C 1021.9 hPa WNW 17.1 km/h 30.6 km/h 58 % 0 mm
09:20 -12.1 °C -18.4 °C 1021.9 hPa WSW 7.7 km/h 29.6 km/h 59 % 0 mm
09:25 -12.1 °C -18.7 °C 1021.9 hPa WNW 16.3 km/h 35.2 km/h 58 % 0 mm
09:31 -12 °C -18.8 °C 1021.9 hPa WSW 15.6 km/h 31.5 km/h 57 % 0 mm
09:36 -11.9 °C -18.5 °C 1021.9 hPa WNW 10.3 km/h 27.8 km/h 58 % 0 mm
09:41 -11.8 °C -18.2 °C 1021.9 hPa WNW 10.9 km/h 22.2 km/h 59 % 0 mm
09:44 -11.7 °C -18.1 °C 1022.2 hPa WNW 12.7 km/h 25.7 km/h 59 % 0 mm
09:49 -11.6 °C -18.2 °C 1021.9 hPa NNW 17.9 km/h 29.6 km/h 58 % 0 mm
09:54 -11.5 °C -18.1 °C 1022.2 hPa West 18.3 km/h 31.5 km/h 58 % 0 mm
09:59 -11.4 °C -18.3 °C 1021.9 hPa NW 15 km/h 22.2 km/h 57 % 0 mm
10:02 -11.4 °C -18.5 °C 1021.9 hPa WNW 5.3 km/h 29.6 km/h 56 % 0 mm
10:07 -11.4 °C -18.4 °C 1021.9 hPa WSW 15 km/h 27.8 km/h 56 % 0 mm
10:12 -11.4 °C -18.7 °C 1022.2 hPa WSW 16.7 km/h 31.5 km/h 55 % 0 mm
10:17 -11.3 °C -18.4 °C 1022.2 hPa WNW 11.7 km/h 27.4 km/h 56 % 0 mm
10:22 -11.3 °C -18.3 °C 1022.2 hPa West 10.6 km/h 24.1 km/h 56 % 0 mm
10:27 -11.2 °C -18.5 °C 1022.2 hPa NNW 16.7 km/h 20.4 km/h 55 % 0 mm
10:33 -11.2 °C -18.5 °C 1022.2 hPa WNW 15 km/h 22.5 km/h 55 % 0 mm
10:34 -11.2 °C -18.5 °C 1022.2 hPa WNW 18.2 km/h 33.3 km/h 55 % 0 mm
10:39 -11.3 °C -18.6 °C 1022.2 hPa NW 14 km/h 35.2 km/h 55 % 0 mm
10:43 -11.3 °C -18.2 °C 1022.2 hPa WSW 9 km/h 20.9 km/h 57 % 0 mm
10:49 -11.3 °C -18.1 °C 1022.2 hPa West 17.1 km/h 31.5 km/h 57 % 0 mm
10:51 -11.3 °C -18.3 °C 1022.2 hPa WNW 12.9 km/h 32.2 km/h 56 % 0 mm
10:56 -11.2 °C -18.5 °C 1022.2 hPa West 22.4 km/h 25.9 km/h 55 % 0 mm
10:58 -11.2 °C -18.5 °C 1022.2 hPa West 15.1 km/h 27.8 km/h 55 % 0 mm
11:03 -11.3 °C -18.3 °C 1022.2 hPa West 13 km/h 31.5 km/h 56 % 0 mm
11:08 -11.3 °C -18.3 °C 1022.2 hPa WNW 16.1 km/h 40.7 km/h 56 % 0 mm
11:13 -11.3 °C -18.4 °C 1022.6 hPa West 12.1 km/h 24.1 km/h 56 % 0 mm
11:17 -11.3 °C -18.2 °C 1022.6 hPa NW 20.1 km/h 32.2 km/h 57 % 0 mm
11:22 -11.3 °C -17.9 °C 1022.2 hPa WNW 18.2 km/h 33.3 km/h 58 % 0 mm
11:25 -11.3 °C -18.2 °C 1022.2 hPa SW 17.9 km/h 25.9 km/h 57 % 0 mm
11:30 -11.3 °C -17.9 °C 1021.9 hPa WSW 20.1 km/h 33.3 km/h 58 % 0 mm
11:32 -11.3 °C -18.4 °C 1021.9 hPa WSW 16.4 km/h 29.6 km/h 56 % 0 mm
11:37 -11.4 °C -18.7 °C 1021.9 hPa NNW 11.6 km/h 29.6 km/h 55 % 0 mm
11:42 -11.4 °C -18.5 °C 1021.9 hPa West 15.1 km/h 29.6 km/h 56 % 0 mm
11:48 -11.4 °C -18.3 °C 1021.9 hPa West 13.5 km/h 31.5 km/h 57 % 0 mm
11:53 -11.4 °C -18.5 °C 1022.2 hPa NW 16.9 km/h 29.6 km/h 56 % 0 mm
11:58 -11.4 °C -18.7 °C 1022.2 hPa WNW 16.6 km/h 37 km/h 55 % 0 mm
12:04 -11.4 °C -18.9 °C 1021.9 hPa West 18.7 km/h 22.5 km/h 54 % 0 mm
12:10 -11.3 °C -18.6 °C 1021.9 hPa WNW 16.7 km/h 33.8 km/h 55 % 0 mm
12:15 -11.3 °C -18.6 °C 1021.9 hPa West 12.6 km/h 29.6 km/h 55 % 0 mm
12:20 -11.2 °C -18.2 °C 1021.9 hPa NW 18 km/h 31.5 km/h 56 % 0 mm
12:25 -11.1 °C -18.3 °C 1021.9 hPa West 14.8 km/h 29.6 km/h 55 % 0 mm
12:30 -10.9 °C -18.2 °C 1021.9 hPa WNW 14.3 km/h 29.6 km/h 55 % 0 mm
12:35 -10.9 °C -18.6 °C 1021.9 hPa WNW 17.5 km/h 29.6 km/h 53 % 0 mm
12:41 -10.8 °C -18.8 °C 1021.9 hPa NW 8 km/h 27.8 km/h 52 % 0 mm
12:46 -10.7 °C -18.2 °C 1021.9 hPa WNW 15.6 km/h 29.6 km/h 54 % 0 mm
12:51 -10.7 °C -18.4 °C 1021.9 hPa West 18.2 km/h 27.8 km/h 53 % 0 mm
13:48 -10.3 °C -18.3 °C 1021.9 hPa West 13.8 km/h 37 km/h 52 % 0 mm
13:55 -10.3 °C -18.3 °C 1021.9 hPa West 13.8 km/h 31.5 km/h 52 % 0 mm
14:00 -10.3 °C -18.3 °C 1021.9 hPa WSW 17.7 km/h 31.5 km/h 52 % 0 mm
14:05 -10.3 °C -18.5 °C 1022.2 hPa WNW 10 km/h 24.1 km/h 51 % 0 mm
14:10 -10.3 °C -18.6 °C 1022.2 hPa WSW 23.3 km/h 33.8 km/h 51 % 0 mm
14:15 -10.3 °C -18.1 °C 1022.2 hPa NNW 15.4 km/h 25.9 km/h 53 % 0 mm
14:20 -10.3 °C -18.3 °C 1022.2 hPa West 13.4 km/h 29.6 km/h 52 % 0 mm
14:21 -10.3 °C -18.3 °C 1022.2 hPa West 18.5 km/h 31.5 km/h 52 % 0 mm
14:26 -10.3 °C -18.1 °C 1022.2 hPa WNW 13 km/h 24.1 km/h 53 % 0 mm
14:31 -10.4 °C -18.4 °C 1022.6 hPa NW 13.4 km/h 31.5 km/h 52 % 0 mm
14:36 -10.5 °C -18.3 °C 1022.6 hPa West 14.3 km/h 29 km/h 53 % 0 mm
14:41 -10.6 °C -18.1 °C 1022.6 hPa WNW 10.1 km/h 17.7 km/h 54 % 0 mm
14:47 -10.7 °C -18.6 °C 1022.2 hPa WSW 11.3 km/h 24.1 km/h 52 % 0 mm
14:52 -10.7 °C -18.7 °C 1022.6 hPa WNW 20 km/h 46.7 km/h 52 % 0 mm
14:57 -10.8 °C -18.5 °C 1022.6 hPa NNW 10.9 km/h 11.1 km/h 53 % 0 mm
15:00 -10.8 °C -18.5 °C 1022.6 hPa WSW 8 km/h 17.7 km/h 53 % 0 mm
15:06 -10.7 °C -18.2 °C 1022.6 hPa WNW 16.1 km/h 32.2 km/h 54 % 0 mm
15:07 -10.7 °C -18.2 °C 1022.6 hPa WNW 17.2 km/h 27.4 km/h 54 % 0 mm
15:12 -10.7 °C -18.4 °C 1022.6 hPa West 14.2 km/h 24.1 km/h 53 % 0 mm
15:19 -10.8 °C -18.7 °C 1022.9 hPa WSW 15.8 km/h 33.3 km/h 52 % 0 mm
15:24 -10.8 °C -18.7 °C 1022.9 hPa WSW 12.1 km/h 22.2 km/h 52 % 0 mm
15:26 -10.8 °C -18.7 °C 1022.9 hPa NW 17.5 km/h 31.5 km/h 52 % 0 mm
15:31 -10.8 °C -18.5 °C 1022.9 hPa WNW 16.1 km/h 27.8 km/h 53 % 0 mm
15:38 -10.8 °C -18.6 °C 1023.2 hPa NE 9 km/h 33.3 km/h 53 % 0 mm
15:40 -10.8 °C -18.1 °C 1023.2 hPa West 11.1 km/h 25.9 km/h 55 % 0 mm
15:45 -10.8 °C -18.5 °C 1023.2 hPa NW 11.9 km/h 24.1 km/h 53 % 0 mm
15:50 -10.8 °C -18.5 °C 1023.2 hPa West 15.6 km/h 31.5 km/h 53 % 0 mm
15:55 -10.7 °C -18.4 °C 1023.6 hPa WSW 16.3 km/h 35.2 km/h 53 % 0 mm
16:00 -10.8 °C -18.7 °C 1023.6 hPa West 14.3 km/h 29.6 km/h 52 % 0 mm
16:02 -10.8 °C -18.7 °C 1023.6 hPa NW 14 km/h 24.1 km/h 52 % 0 mm
16:07 -10.8 °C -18.5 °C 1023.9 hPa SW 14.5 km/h 24.1 km/h 53 % 0 mm
16:12 -10.8 °C -18.8 °C 1023.9 hPa West 11.1 km/h 31.5 km/h 52 % 0 mm
16:17 -10.8 °C -18.5 °C 1023.9 hPa WNW 14.2 km/h 22.2 km/h 53 % 0 mm
16:21 -10.8 °C -18.7 °C 1024.3 hPa West 15.8 km/h 33.8 km/h 52 % 0 mm
16:26 -10.8 °C -18.6 °C 1023.9 hPa West 12.7 km/h 29 km/h 53 % 0 mm
16:32 -10.8 °C -18.6 °C 1024.3 hPa WSW 10 km/h 25.9 km/h 53 % 0 mm
16:37 -10.9 °C -18.9 °C 1024.6 hPa West 10 km/h 18.5 km/h 52 % 0 mm
16:38 -10.9 °C -18.9 °C 1024.3 hPa WSW 10.1 km/h 19.3 km/h 52 % 0 mm
16:43 -11.1 °C -19.2 °C 1024.3 hPa WNW 10.9 km/h 27.8 km/h 51 % 0 mm
16:48 -11.1 °C -19 °C 1024.6 hPa WSW 6.6 km/h 18.5 km/h 52 % 0 mm
16:50 -11.1 °C -18.8 °C 1024.6 hPa West 14 km/h 25.9 km/h 53 % 0 mm
16:55 -11.1 °C -18.6 °C 1024.9 hPa WNW 13.5 km/h 24.1 km/h 54 % 0 mm
17:00 -11.1 °C -18.3 °C 1024.9 hPa NW 14.8 km/h 29.6 km/h 55 % 0 mm
17:05 -11.1 °C -18.8 °C 1024.9 hPa NW 16.9 km/h 27.8 km/h 53 % 0 mm
17:10 -11 °C -18.5 °C 1024.9 hPa WNW 17.4 km/h 31.5 km/h 54 % 0 mm
17:15 -11 °C -18.3 °C 1024.9 hPa West 17.4 km/h 37 km/h 55 % 0 mm
17:20 -11 °C -18.1 °C 1025.3 hPa WNW 14.2 km/h 22.2 km/h 56 % 0 mm
17:22 -11 °C -18.1 °C 1025.3 hPa NNW 12.2 km/h 27.4 km/h 56 % 0 mm
17:27 -11.1 °C -18.6 °C 1025.3 hPa WNW 19.2 km/h 35.2 km/h 54 % 0 mm
17:31 -11.1 °C -18.6 °C 1025.3 hPa WNW 18.3 km/h 35.4 km/h 54 % 0 mm
17:36 -11.2 °C -18.2 °C 1025.3 hPa West 13.8 km/h 27.4 km/h 56 % 0 mm
17:41 -11.2 °C -18.2 °C 1025.6 hPa West 17.4 km/h 29.6 km/h 56 % 0 mm
17:45 -11.2 °C -18.3 °C 1025.6 hPa WNW 9.3 km/h 31.5 km/h 56 % 0 mm
17:50 -11.3 °C -18.6 °C 1025.6 hPa NNW 15.8 km/h 31.5 km/h 55 % 0 mm
17:55 -11.4 °C -18.4 °C 1025.6 hPa North 16.1 km/h 38.9 km/h 56 % 0 mm
18:01 -11.4 °C -18.3 °C 1026 hPa WNW 18.7 km/h 27.8 km/h 57 % 0 mm
18:06 -11.6 °C -18.6 °C 1026 hPa NW 20.6 km/h 20.9 km/h 56 % 0 mm
18:09 -11.6 °C -18.4 °C 1026 hPa NW 12.6 km/h 18.5 km/h 57 % 0 mm
18:14 -11.6 °C -18.8 °C 1026.3 hPa NNW 20.4 km/h 38.9 km/h 55 % 0 mm
18:19 -11.7 °C -18.7 °C 1026.3 hPa NW 18 km/h 25.9 km/h 56 % 0 mm
18:22 -11.7 °C -18.7 °C 1026.3 hPa West 13 km/h 22.5 km/h 56 % 0 mm
18:27 -11.8 °C -18.6 °C 1026.6 hPa NW 13 km/h 25.9 km/h 57 % 0 mm
18:32 -11.8 °C -18.8 °C 1026.6 hPa NW 14.8 km/h 24.1 km/h 56 % 0 mm
18:33 -11.8 °C -18.8 °C 1026.6 hPa WNW 9.7 km/h 22.2 km/h 56 % 0 mm
18:38 -11.9 °C -18.5 °C 1026.6 hPa NW 10.1 km/h 18.5 km/h 58 % 0 mm
18:43 -12 °C -18.8 °C 1026.6 hPa NW 14.6 km/h 24.1 km/h 57 % 0 mm
18:49 -12.1 °C -18.8 °C 1026.6 hPa WNW 14.2 km/h 27.8 km/h 57 % 0 mm
18:58 -12.2 °C -18.9 °C 1027.3 hPa West 16.4 km/h 30.6 km/h 57 % 0 mm
19:00 -12.2 °C -18.9 °C 1027 hPa NW 16.4 km/h 27.4 km/h 57 % 0 mm
19:05 -12.2 °C -18.8 °C 1027.3 hPa WNW 10.5 km/h 18.5 km/h 58 % 0 mm
19:10 -12.3 °C -19.1 °C 1027.7 hPa NNW 11.1 km/h 17.7 km/h 57 % 0 mm
19:13 -12.3 °C -18.8 °C 1027.3 hPa West 9.2 km/h 24.1 km/h 58 % 0 mm
19:18 -12.4 °C -19.2 °C 1027.3 hPa WNW 19.3 km/h 40.7 km/h 57 % 0 mm
19:22 -12.5 °C -19.3 °C 1027.7 hPa WNW 16.1 km/h 38.6 km/h 57 % 0 mm
19:27 -12.6 °C -19.3 °C 1027.3 hPa West 17.4 km/h 31.5 km/h 57 % 0 mm
19:33 -12.6 °C -18.9 °C 1027.3 hPa WNW 20 km/h 42.6 km/h 59 % 0 mm
19:38 -12.6 °C -18.9 °C 1027.3 hPa WNW 12.9 km/h 24.1 km/h 59 % 0 mm
19:41 -12.6 °C -19.2 °C 1027.3 hPa NW 15.8 km/h 37 km/h 58 % 0 mm
19:47 -12.7 °C -19 °C 1027.7 hPa NW 22.4 km/h 31.5 km/h 59 % 0 mm
19:56 -12.7 °C -18.9 °C 1027.7 hPa NW 20.9 km/h 42.6 km/h 60 % 0 mm
20:01 -12.7 °C -18.9 °C 1027.7 hPa NW 14.6 km/h 29.6 km/h 60 % 0 mm
20:06 -12.7 °C -18.9 °C 1027.7 hPa NW 16.3 km/h 31.5 km/h 60 % 0 mm
20:11 -12.7 °C -18.6 °C 1028 hPa NNW 12.7 km/h 24.1 km/h 61 % 0 mm
20:16 -12.7 °C -18.4 °C 1028 hPa NW 17.5 km/h 29.6 km/h 62 % 0 mm
20:21 -12.7 °C -18.9 °C 1028 hPa WNW 15.1 km/h 27.8 km/h 60 % 0 mm
20:22 -12.7 °C -18.9 °C 1028 hPa WNW 15.4 km/h 27.8 km/h 60 % 0 mm
20:27 -12.7 °C -18.9 °C 1028 hPa WNW 15.4 km/h 24.1 km/h 60 % 0 mm
20:32 -12.8 °C -18.9 °C 1028 hPa NW 13.7 km/h 29.6 km/h 60 % 0 mm
20:37 -12.8 °C -18.6 °C 1028.3 hPa WNW 14.5 km/h 25.9 km/h 62 % 0 mm
20:43 -12.7 °C -18.3 °C 1028.3 hPa West 8.4 km/h 31.5 km/h 63 % 0 mm
20:48 -12.7 °C -18.5 °C 1028.3 hPa WNW 17.9 km/h 25.9 km/h 62 % 0 mm
20:53 -12.7 °C -18.3 °C 1028.3 hPa West 7.1 km/h 27.8 km/h 63 % 0 mm
20:57 -12.7 °C -18.5 °C 1028.3 hPa West 18.8 km/h 27.8 km/h 62 % 0 mm
21:02 -12.7 °C -18.5 °C 1028.3 hPa WSW 12.9 km/h 31.5 km/h 62 % 0 mm
21:05 -12.8 °C -18.6 °C 1028.7 hPa NW 17.2 km/h 31.5 km/h 62 % 0 mm
21:10 -12.8 °C -18.6 °C 1028.3 hPa West 8.5 km/h 14.8 km/h 62 % 0 mm
21:16 -12.8 °C -18.6 °C 1028.3 hPa WNW 11.3 km/h 25.7 km/h 62 % 0 mm
21:21 -12.8 °C -18.4 °C 1028.3 hPa WNW 14.5 km/h 32.2 km/h 63 % 0 mm
21:26 -12.8 °C -18.6 °C 1028.7 hPa WNW 12.9 km/h 35.4 km/h 62 % 0 mm
21:31 -12.8 °C -18.4 °C 1028.7 hPa WNW 19.3 km/h 32.2 km/h 63 % 0 mm
21:36 -12.8 °C -18.6 °C 1029 hPa WNW 8.4 km/h 20.9 km/h 62 % 0 mm
21:37 -12.8 °C -18.6 °C 1029 hPa WNW 9.3 km/h 20.9 km/h 62 % 0 mm
21:42 -12.8 °C -18.4 °C 1028.7 hPa WNW 10 km/h 25.7 km/h 63 % 0 mm
21:44 -12.8 °C -18.4 °C 1029 hPa NW 12.1 km/h 24.1 km/h 63 % 0 mm
21:46 -12.8 °C -18.4 °C 1029 hPa NW 11.1 km/h 19.3 km/h 63 % 0 mm
21:51 -12.8 °C -18.6 °C 1029 hPa WNW 16.9 km/h 27.8 km/h 62 % 0 mm
21:56 -12.9 °C -18.4 °C 1029 hPa WNW 14 km/h 20.4 km/h 63 % 0 mm
22:00 -12.9 °C -18.7 °C 1029 hPa WNW 15.6 km/h 27.8 km/h 62 % 0 mm
22:05 -12.9 °C -18.7 °C 1029 hPa WNW 19.2 km/h 29.6 km/h 62 % 0 mm
22:11 -12.9 °C -18.7 °C 1029.3 hPa WNW 14.5 km/h 32.2 km/h 62 % 0 mm
22:16 -12.9 °C -18.5 °C 1029.3 hPa WSW 8.5 km/h 22.2 km/h 63 % 0 mm
22:21 -12.9 °C -18.5 °C 1029.3 hPa WNW 11.3 km/h 29 km/h 63 % 0 mm
22:26 -12.8 °C -18.2 °C 1029.3 hPa WNW 13.7 km/h 25.9 km/h 64 % 0 mm
22:28 -12.8 °C -18.2 °C 1029.3 hPa WNW 15.3 km/h 29.6 km/h 64 % 0 mm
22:30 -12.8 °C -18.4 °C 1029.3 hPa WNW 14.6 km/h 25.9 km/h 63 % 0 mm
22:35 -12.9 °C -18.3 °C 1029.3 hPa West 6.9 km/h 22.2 km/h 64 % 0 mm
22:41 -12.9 °C -18.3 °C 1029 hPa WNW 9.7 km/h 25.7 km/h 64 % 0 mm
22:45 -12.9 °C -18.5 °C 1029 hPa WNW 10.8 km/h 20.4 km/h 63 % 0 mm
22:50 -13 °C -18.4 °C 1029.3 hPa WNW 9.7 km/h 18.5 km/h 64 % 0 mm
22:56 -13 °C -18.4 °C 1029.3 hPa WNW 14.5 km/h 29 km/h 64 % 0 mm
23:01 -12.9 °C -18.3 °C 1029.3 hPa WNW 15.4 km/h 29.6 km/h 64 % 0 mm
23:06 -12.9 °C -18.3 °C 1029.3 hPa WNW 11.4 km/h 18.5 km/h 64 % 0 mm
23:11 -13 °C -18.2 °C 1029.3 hPa WNW 10.1 km/h 18.5 km/h 65 % 0 mm
23:13 -13 °C -18.2 °C 1029.3 hPa WNW 9.2 km/h 14.8 km/h 65 % 0 mm
23:16 -13 °C -18.2 °C 1029.3 hPa WNW 9 km/h 25.9 km/h 65 % 0 mm
23:21 -13 °C -18.6 °C 1029.3 hPa NW 7.2 km/h 31.5 km/h 63 % 0 mm
23:27 -13.1 °C -18.6 °C 1029.3 hPa WNW 11.9 km/h 25.9 km/h 63 % 0 mm
23:32 -13.1 °C -18.6 °C 1029.7 hPa West 13.2 km/h 25.9 km/h 63 % 0 mm
23:37 -13.1 °C -18.5 °C 1029.7 hPa WNW 14.3 km/h 22.2 km/h 64 % 0 mm
23:39 -13.1 °C -18.4 °C 1029.7 hPa NW 6.6 km/h 25.9 km/h 64 % 0 mm
23:44 -13.1 °C -18.5 °C 1029.7 hPa West 9.3 km/h 20.9 km/h 64 % 0 mm
23:49 -13.1 °C -18.3 °C 1029.7 hPa WNW 9.8 km/h 17.7 km/h 65 % 0 mm
23:54 -13.1 °C -18.5 °C 1029.7 hPa NW 9.2 km/h 18.5 km/h 64 % 0 mm
Crab Meadow Weather
Compliments of Weather Underground - 3 mb

Script developed by  Jim McMurry - jmcmurry@mwt.net Adapted for the template by  Wim van der Kuil - Leuven-Template.eu

Astronomy: Mercury can get as hot as 800 degrees and can be as cold as 300 degrees below zero.